Weather in Severiki

Russia / Pskov Oblast     55°49′48″N   30°35′54″E
temp.,
°C
wind,
m/s
gust,
m/s
humid.,
%
clouds,
%
prec.,
mm/h
press.,
hPa
HPBL,
m
15 may, sat
sat1500:00+12ese31098100 1.5 1007344
03:00+11ese259940 2.1 1006128
06:00+10se2410097 0.6 1005138
09:00+15s238738 0.9 1005476
12:00+17s237777 1.8 10051014
15:00+18sw347744 6.8 1004924
18:00+16wsw3687100 3.9 1004295
21:00+13wsw229399 5.1 100521
16 may, sun
sun1600:00+11wsw229568 0.0 100632
03:00+10w23979 0.0 100745
06:00+10w24975 0.0 100996
09:00+15wsw228270 0.0 1010429
12:00+20sw23557 0.0 10101503
15:00+21ssw344848 0.0 10102057
18:00+18ssw367245 0.3 1010595
21:00+14sse228973 0.3 101122
17 may, mon
mon1700:00+12sse2396100 0.0 101264
03:00+11se259761 0.0 1011102
06:00+11ese2796100 0.0 1011186
09:00+17se4974100 0.0 1010533
12:00+20se4659100 0.0 10091149
15:00+17sse2486100 1.5 1008249
18:00+14nw259999 13.1 1005281
21:00+13nnw3799100 16.8 1004275
18 may, tue
tue1800:00+13n2599100 1.1 1003215
03:00+14ne2699100 3.8 1001232
06:00+14e31099100 1.0 998401
09:00+16se51095100 2.1 996923
12:00+15se51196100 0.8 996930
15:00+13sw6139277 1.5 1001984
18:00+16sw488532 0.6 1003869
21:00+11ssw11955 0.6 100511
19 may, wed
wed1900:00+10sw229778 0.0 100621
03:00+9ssw1195100 0.0 100610
06:00+10w1294100 0.1 100685
09:00+11nw0197100 1.6 1006112
12:00+13wnw2389100 2.1 1006455
15:00+14wnw3788100 3.8 1006809
18:00+13wnw4887100 1.1 1006881
21:00+10wnw2795100 1.3 1007179